Greenville, MS

2:09 AM CDT on October 22, 2017 (GMT -0500)
Mid Delta Regional

Weather History for KGLH - May, 2014

Change the Weather History Date:

Saturday, May 17, 2014

  Actual Average Record
Temperature  
Mean Temperature 67 °F 73 °F  
Max Temperature 80 °F 83 °F 94 °F (1911)
Min Temperature 54 °F 63 °F 43 °F (2011)
Degree Days  
Heating Degree Days 0 0  
Month to date heating degree days 32 10  
Since 1 July heating degree days 3207 2771  
Cooling Degree Days 2 8  
Month to date cooling degree days 93 105  
Year to date cooling degree days 167 191  
Growing Degree Days 18 (Base 50)    
Moisture  
Dew Point 55 °F    
Average Humidity 66    
Maximum Humidity 84    
Minimum Humidity 48    
Precipitation  
Precipitation 0.00 in 0.17 in 3.77 in (1920)
Month to date precipitation 1.69 3.00  
Year to date precipitation 20.57 22.35  
Sea Level Pressure  
Sea Level Pressure 30.09 in    
Wind  
Wind Speed 10 mph (ENE)    
Max Wind Speed 20 mph    
Max Gust Speed 25 mph    
Visibility 10 miles    
Events      
T = Trace of Precipitation, MM = Missing Value Source: NWS Daily Summary

Daily Weather History Graph

Daily Weather History Graph

Search for Another Location

Airport or City:

Trip Planner

Search our weather history database for the weather conditions in past years. The results will help you decide how hot, cold, wet, or windy it might be!

Date:

Astronomy

May. 17, 2014 Rise Set
Actual Time 6:02 AM CDT 7:58 PM CDT
Civil Twilight 5:34 AM CDT 8:26 PM CDT
Nautical Twilight 5:01 AM CDT 9:00 PM CDT
Astronomical Twilight 4:25 AM CDT 9:35 PM CDT
Moon 11:01 PM CDT (5/17) 8:45 AM CDT (5/17)
Length of Visible Light 14h 51m
Length of Day
13h 56m
Waning Gibbous, 89% of the Moon is Illuminated
May 17
Waning Gibbous
May 21
Last Quarter
May 28
New
Jun 5
First Quarter
Jun 12
Full

Hourly Weather History & Observations

Time (CDT) Temp. Dew Point Humidity Pressure Visibility Wind Dir Wind Speed Gust Speed Precip Events Conditions
12:53 AM 60.1 °F 48.9 °F 67% 30.09 in 10.0 mi ESE 6.9 mph - N/A   Partly Cloudy
1:53 AM 61.0 °F 48.9 °F 64% 30.07 in 10.0 mi East 6.9 mph - N/A   Overcast
2:53 AM 61.0 °F 48.9 °F 64% 30.07 in 10.0 mi ESE 6.9 mph - N/A   Partly Cloudy
3:53 AM 59.0 °F 48.9 °F 69% 30.06 in 10.0 mi ESE 8.1 mph - N/A   Partly Cloudy
4:53 AM 57.9 °F 48.9 °F 72% 30.08 in 10.0 mi Calm Calm - N/A   Clear
5:53 AM 57.0 °F 50.0 °F 77% 30.11 in 10.0 mi NNE 6.9 mph - N/A   Clear
6:53 AM 57.0 °F 51.1 °F 81% 30.14 in 10.0 mi NE 13.8 mph - N/A   Clear
7:53 AM 57.9 °F 50.0 °F 75% 30.16 in 10.0 mi ENE 9.2 mph - N/A   Clear
8:53 AM 62.1 °F 50.0 °F 65% 30.16 in 10.0 mi East 12.7 mph - N/A   Clear
9:53 AM 64.9 °F 52.0 °F 63% 30.14 in 10.0 mi East 10.4 mph - N/A   Overcast
10:53 AM 69.1 °F 57.0 °F 65% 30.11 in 10.0 mi South 13.8 mph 19.6 mph N/A   Partly Cloudy
11:53 AM 73.9 °F 60.1 °F 62% 30.08 in 10.0 mi South 13.8 mph - N/A   Clear
12:53 PM 77.0 °F 59.0 °F 54% 30.07 in 10.0 mi SW 13.8 mph 24.2 mph N/A   Clear
1:53 PM 78.1 °F 57.9 °F 50% 30.06 in 10.0 mi WSW 12.7 mph - N/A   Clear
2:53 PM 77.0 °F 57.9 °F 52% 30.05 in 10.0 mi SW 12.7 mph 23.0 mph N/A   Scattered Clouds
3:53 PM 79.0 °F 57.0 °F 47% 30.04 in 10.0 mi SW 9.2 mph 19.6 mph N/A   Clear
4:53 PM 78.1 °F 60.1 °F 54% 30.04 in 10.0 mi NNE 12.7 mph - N/A   Mostly Cloudy
5:53 PM 73.9 °F 59.0 °F 59% 30.05 in 10.0 mi North 12.7 mph 21.9 mph N/A   Clear
6:53 PM 71.1 °F 59.0 °F 66% 30.06 in 10.0 mi NE 13.8 mph 23.0 mph N/A   Clear
7:53 PM 68.0 °F 57.9 °F 70% 30.09 in 10.0 mi NNE 10.4 mph - N/A   Clear
8:53 PM 66.0 °F 57.9 °F 75% 30.09 in 10.0 mi NNE 9.2 mph - N/A   Clear
9:53 PM 63.0 °F 57.9 °F 84% 30.12 in 10.0 mi North 9.2 mph - N/A   Clear
10:53 PM 63.0 °F 57.9 °F 84% 30.12 in 10.0 mi NNE 11.5 mph - N/A   Clear
11:53 PM 62.1 °F 57.9 °F 86% 30.13 in 10.0 mi NNE 10.4 mph - N/A   Mostly Cloudy